Location: Charlotte
(35.2269°N, 80.8433°W)
Time: 23:31:56
(UTC-05:00)

ISS - Visible Passes

Search period start: 22 January 2017 00:00
Search period end: 01 February 2017 00:00
Orbit: 399 x 410 km, 51.6° (Epoch: 23 January)

Date Brightness Start Highest point End Pass type
(mag) Time Alt. Az. Time Alt. Az. Time Alt. Az.
25 Jan -1.3 18:58:23 10° SSE 19:00:00 16° SE 19:00:00 16° SE visible
26 Jan -1.8 19:41:08 10° SW 19:43:08 34° SW 19:43:08 34° SW visible
27 Jan -2.9 18:49:04 10° SSW 18:52:11 44° SE 18:53:29 28° E visible
28 Jan -1.8 19:33:25 10° W 19:36:21 30° NW 19:36:25 30° NNW visible
29 Jan -3.0 18:40:45 10° WSW 18:43:59 61° NW 18:46:35 15° NE visible
30 Jan -0.9 19:26:22 10° WNW 19:28:25 15° NNW 19:29:19 14° N visible
31 Jan -1.5 18:33:07 10° W 18:35:54 25° NW 18:38:41 10° NNE visible
